Flag for Switzerland Weather past 2 weeks in Emmen, Lucerne, Switzerland

Now
26 °F

Chilly.


Feels Like: 26 °F
Forecast: 21 / 35 °F
Wind: 2 mph from Northwest

Location: Giswil

Current Time: Jan 31, 2015 at 8:09:55 AM

Latest Report: Jan 31, 2015 at 7:00 AM


Visibility: N/A

Pressure: 29.15 "Hg

Humidity: 100%

Dew point: 26 °F

Location of EmmenLocation

Historic Weather in Emmen — Graph

°F

Emmen temperature yesterday

Maximum temperature yesterday: 39 °F (at 3:00 AM)
Minimum temperature yesterday: 34 °F (at 9:00 AM)
Average temperature yesterday: 36 °F

Past Weeks' High & Low Weather Summary

 TemperatureHumidityPressure
High44 °F (Jan 16, 3:00 PM)100% (Jan 16, 7:00 AM)30.50 "Hg (Jan 16, 7:00 AM)
Low17 °F (Jan 28, 7:00 AM)50% (Jan 30, 10:00 AM)28.91 "Hg (Jan 30, 1:00 AM)
Average33 °F93%29.96 "Hg
* Reported Jan 16 6:00 AM — Jan 31 6:00 AM, Emmen, Weather by CustomWeather, © 2014

Note: Actual official high and low records may vary slightly from our data, if they occured in-between our weather recording intervals... More about our weather records

Advertising

Emmen weather history for previous 24 hours

 ConditionsComfort  
Time TempWeatherWind HumidityBarometerVisibility
6:00 AM
Jan 31
29 °FChilly.2 mph100%29.12 "HgN/A
5:00 AM32 °FChilly.1 mph100%29.12 "HgN/A
3:00 AM33 °FChilly.1 mph99%29.09 "HgN/A
2:00 AM34 °FChilly.2 mph95%29.09 "HgN/A
1:00 AM34 °FChilly.1 mph98%29.06 "HgN/A
12:00 AM34 °FChilly.3 mph92%29.06 "HgN/A
11:00 PM
Jan 30
35 °FChilly.1 mph80%29.03 "HgN/A
10:00 PM34 °FChilly.2 mph82%29.03 "HgN/A
9:00 PM35 °FChilly.12 mph69%29.00 "HgN/A
8:00 PM35 °FChilly.12 mph63%28.97 "HgN/A
7:00 PM35 °FChilly.9 mph65%28.97 "HgN/A
6:00 PM36 °FChilly.12 mph61%28.97 "HgN/A
5:00 PM37 °FChilly.7 mph50%28.97 "HgN/A
4:00 PM37 °FChilly.2 mph53%29.00 "HgN/A
3:00 PM37 °FChilly.9 mph52%29.00 "HgN/A
2:00 PM38 °FChilly.17 mph50%29.00 "HgN/A
1:00 PM38 °FChilly.15 mph50%29.03 "HgN/A
12:00 PM36 °FChilly.13 mph52%29.06 "HgN/A
11:00 AM35 °FChilly.15 mph55%29.09 "HgN/A
10:00 AM35 °FChilly.8 mph50%29.12 "HgN/A
9:00 AM34 °FChilly.14 mph53%29.15 "HgN/A
8:00 AM35 °FChilly.14 mph53%29.12 "HgN/A
Weather by CustomWeather, © 2014

See weather overviewHow to use our weather pages